GSAT0204 (GALILEO 8)

Last updated on Wed Oct 29 2025 00:02:34 GMT+0000 (Coordinated Universal Time)

1 40545U 15017B 25300.00773965 -.00000072 00000+0 00000+0 0 9997 2 40545 56.8637 347.9736 0005918 248.4935 111.5086 1.70475804 28279
UTC large
Height (km)
Speed (km/s)
/
Latitude / Longitude
Inclination (degrees)
Orbital Period (minutes)
Azimuth
Elevation
Range (km)
Doppler Factor

Next 0 passes for location: London (51.5072 / 0.1276)

Sorry there are no passes over London.